TRANSIT 5B-1 DEB, 3166

Orbit data source: Space-Track

TRANSIT 5B-1 DEB, 3166 is space debris in LEO originally from a launch on Sat, 28 Sep 1963 UTC launched from the Air Force Western Test Range (AFWTR). Debris objects in space refer to the collection of defunct objects orbiting the Earth. Examples of debris include non-operational satellites, rocket bodies, and fragments generated from explosions, collisions, or faulty payload assembly.

Loading next visibility...
Identifier
3166, 1963-038H
Orbit
LEO
Country
Flag of USUS
Related business
Manufacturer
Unknown
Mission
Spacecraft
Bus & Motor
Unknown
Mass
Unknown
Launch date (UTC)
1963-09-28 (63 years ago)
Launch vehicle
Unknown
Launch site
Air Force Western Test Range (AFWTR)
Object type
Payload
Rocket body
Debris
Shape & HBR
Unknown shape, 0.2 m
Radar Cross Section
Medium (>0.1 m² and <1 m²)

Expand to show TLE details & history
Last TLE update: 19 hours ago

TLE from 19 hours ago
0 TRANSIT 5B-1 DEB
1 03166U 63038H   26254.21393204  .00000069  00000-0  10000-3 0  9998
2 03166  89.9677 332.7013 0043172 127.8994 259.5128 13.44983888603153
Epoch: 2026-09-11T05:08Z
TLE epoch observation values (Epoch: 2026-09-11T05:08:03.728Z)
Latitude
26.96077°
Longitude
-94.53839°
Altitude
1,100.116 km
Speed
7.302 km/s
True Right ascension
22h 10m 52s
True Declination
26° 49' 42"
Sunlit
Object was in full shadow at epoch
Visualization orbit readout
Latitude
Unknown
Longitude
Unknown
Altitude
Unknown
Speed
Unknown
Apparent Right ascension
Unknown
Apparent Declination
Unknown
Sunlit
N/A
Visualization observer readout
Local Sidereal Time
16:29:55
Azimuth
Unknown
Elevation
Unknown
Doppler factor
Unknown
Orbital elements
Apogee altitude
1,120.06 km
Perigee altitude
1,055.596 km
Semi-major axis
7,465.965 km
Eccentricity
0.00432
Inclination
89.9677°
RAAN
332.7013°
Arg. of periapsis
127.8994°
True anomaly
259.02683°
Mean anomaly
259.5128°
Eccentric anomaly
259.26977°
Mean motion
3.36445 °/min
Orbital period
107 mins
BSTAR
0.0001
Loading maneuver chart data...
Computing Atmospheric mass density...

Documentation

Showing up to 5 results
|